"startDT [UTC]","vpos","CH4 [ppm]","stdev(CH4) [ppm]","CO2 [ppm]","stdev(CO2) [ppm]","H2O [ppm]","stdev(H2O)","p_LGR [torr]","T_LGR [C]","mt1_LGR [us]","mt2_LGR [us]","T_ECpre [C]","T_EC1 [C]","T_EC2 [C]","p_inlet [hPa]","p_in [hPa]","p_out [hPa]","T_inlet [C]","RH_inlet [%]","dwpt_inlet [C]","T_vent [C]","RH_vent [%]","dwpt_vent [C]","flow_vent [l min-1]","flow_inlet [l min-1]","dwpt_sample [C]","T_room [C]"
2012-09-05 00:00:00,0.0,1.9438,0.0010,389.82,0.34,246.7,38.6,138.03,32.00,24.65,36.51,0.94,-25.62,18.12,-46,38,-931,23.7,26.1,3.1,24.1,1.9,-28.6,5.73,2.52,-27.2,30.3
2012-09-05 00:01:00,0.0,1.9444,0.0011,389.95,0.35,246.6,35.2,138.03,32.00,24.65,36.50,0.93,-25.62,18.16,-46,38,-931,23.7,26.2,3.1,24.1,1.9,-28.7,5.73,2.52,-27.2,30.3
2012-09-05 00:02:00,0.0,1.9445,0.0012,389.91,0.32,246.7,36.6,138.03,32.00,24.65,36.51,0.92,-25.62,18.19,-46,38,-931,23.6,26.3,3.1,24.1,1.9,-28.6,5.73,2.51,-27.2,30.3
2012-09-05 00:03:00,0.0,1.9445,0.0010,389.92,0.28,243.4,40.1,138.03,32.00,24.65,36.50,0.93,-25.62,18.23,-46,38,-931,23.6,26.3,3.1,24.1,1.9,-28.7,5.73,2.51,-27.2,30.3
2012-09-05 00:04:00,0.0,1.9447,0.0009,389.93,0.33,244.9,34.5,138.03,32.00,24.66,36.50,0.92,-25.62,18.26,-46,38,-931,23.6,26.5,3.2,24.0,1.9,-28.7,5.73,2.51,-27.2,30.2
2012-09-05 00:05:00,0.0,1.9448,0.0010,390.01,0.33,247.9,37.9,138.03,32.00,24.65,36.50,0.91,-25.63,18.29,-46,38,-931,23.5,26.5,3.2,24.0,1.9,-28.7,5.73,2.51,-27.2,30.3
2012-09-05 00:06:00,0.0,1.9447,0.0009,390.09,0.30,251.6,35.2,138.03,32.00,24.66,36.50,0.91,-25.63,18.31,-46,38,-932,23.5,26.5,3.2,24.0,1.9,-28.7,5.73,2.51,-27.1,30.3
2012-09-05 00:07:00,0.0,1.9443,0.0009,389.84,0.29,258.5,34.4,138.03,32.00,24.65,36.51,0.93,-25.62,18.34,-46,38,-931,23.5,26.5,3.2,24.0,1.9,-28.7,5.73,2.51,-27.1,30.3
2012-09-05 00:08:00,0.0,1.9446,0.0010,389.85,0.31,259.0,31.6,138.03,32.00,24.66,36.51,0.92,-25.63,18.37,-46,38,-931,23.5,26.5,3.2,24.0,1.9,-28.7,5.73,2.51,-27.1,30.3
2012-09-05 00:09:00,0.0,1.9449,0.0009,389.99,0.34,260.2,30.7,138.03,32.00,24.66,36.50,0.93,-25.62,18.40,-46,38,-931,23.5,26.6,3.2,23.9,1.9,-28.7,5.73,2.51,-27.1,30.3
2012-09-05 00:10:00,0.0,1.9448,0.0010,389.88,0.35,254.2,33.6,138.03,32.00,24.65,36.51,0.93,-25.63,18.42,-46,38,-931,23.5,26.6,3.2,23.9,1.9,-28.7,5.73,2.51,-27.1,30.3
2012-09-05 00:11:00,0.0,1.9444,0.0012,389.96,0.29,252.3,34.3,138.03,32.00,24.66,36.51,0.93,-25.63,18.44,-46,38,-931,23.5,26.6,3.2,24.0,1.9,-28.7,5.73,2.51,-27.1,30.3
2012-09-05 00:12:00,0.0,1.9448,0.0011,389.94,0.31,245.1,33.8,138.03,32.00,24.66,36.50,0.92,-25.63,18.47,-46,38,-931,23.5,26.7,3.3,23.9,1.9,-28.7,5.73,2.51,-27.1,30.3
2012-09-05 00:13:00,0.0,1.9449,0.0010,390.06,0.38,262.6,28.2,138.03,32.01,24.65,36.50,0.93,-25.63,18.49,-46,38,-931,23.5,26.7,3.3,23.9,1.9,-28.7,5.73,2.51,-27.1,30.3
2012-09-05 00:14:00,0.0,1.9454,0.0011,390.03,0.31,253.9,35.1,138.03,32.01,24.66,36.51,0.93,-25.63,18.51,-46,38,-931,23.5,26.7,3.2,23.9,1.9,-28.7,5.73,2.51,-27.1,30.3
2012-09-05 00:15:00,0.0,1.9458,0.0010,390.16,0.33,257.3,30.8,138.03,32.01,24.66,36.50,0.94,-25.62,18.53,-46,38,-931,23.5,26.7,3.3,23.9,1.9,-28.7,5.73,2.52,-27.1,30.2
2012-09-05 00:16:00,0.0,1.9460,0.0010,390.13,0.36,253.3,38.1,138.03,32.01,24.65,36.50,0.94,-25.62,18.55,-46,38,-931,23.5,26.8,3.3,23.9,1.9,-28.8,5.73,2.52,-27.1,30.2
2012-09-05 00:17:00,0.0,1.9456,0.0011,390.16,0.38,247.8,26.2,138.03,32.01,24.66,36.51,0.93,-25.63,18.57,-46,38,-931,23.5,26.8,3.3,23.9,1.9,-28.8,5.73,2.52,-27.2,30.2
2012-09-05 00:18:00,0.0,1.9457,0.0010,390.16,0.31,251.0,32.5,138.03,32.01,24.66,36.50,0.92,-25.62,18.59,-46,38,-931,23.4,26.8,3.3,23.9,1.9,-28.7,5.73,2.52,-27.2,30.1
2012-09-05 00:19:00,0.0,1.9459,0.0009,390.21,0.30,241.4,35.4,138.03,32.01,24.66,36.51,0.94,-25.62,18.60,-46,38,-931,23.4,26.9,3.3,23.9,1.9,-28.8,5.73,2.51,-27.2,30.1
2012-09-05 00:20:00,0.0,1.9458,0.0010,390.05,0.37,236.9,36.6,138.03,32.01,24.66,36.51,0.94,-25.62,18.62,-46,38,-931,23.4,27.0,3.3,23.8,1.9,-28.8,5.73,2.51,-27.2,30.0
2012-09-05 00:21:00,0.0,1.9463,0.0010,390.28,0.35,250.6,34.5,138.03,32.01,24.65,36.50,0.94,-25.62,18.63,-46,38,-931,23.4,26.9,3.3,23.8,1.9,-28.8,5.73,2.51,-27.3,30.0
2012-09-05 00:22:00,0.0,1.9461,0.0011,390.12,0.30,244.1,36.1,138.03,32.01,24.66,36.51,0.95,-25.62,18.65,-46,38,-931,23.3,27.0,3.3,23.8,1.9,-28.8,5.73,2.51,-27.3,30.0
2012-09-05 00:23:00,0.0,1.9467,0.0012,390.17,0.35,240.3,34.6,138.03,32.01,24.66,36.50,0.94,-25.62,18.66,-46,38,-930,23.3,27.1,3.3,23.8,1.9,-28.8,5.73,2.51,-27.3,30.0
2012-09-05 00:24:00,0.0,1.9460,0.0009,390.21,0.33,244.4,35.0,138.03,32.00,24.66,36.50,0.94,-25.62,18.67,-46,38,-930,23.3,27.1,3.3,23.7,1.9,-28.8,5.73,2.52,-27.3,30.0
2012-09-05 00:25:00,0.0,1.9462,0.0010,390.22,0.33,237.3,29.8,138.03,32.00,24.65,36.50,1.01,-25.62,18.14,-46,38,-931,23.3,27.0,3.3,23.8,1.9,-28.8,5.73,2.52,-27.3,30.0
2012-09-05 00:26:00,0.0,1.9466,0.0011,390.21,0.28,248.4,34.9,138.03,32.00,24.65,36.51,1.16,-25.62,16.16,-46,38,-931,23.3,27.1,3.3,23.7,1.9,-28.7,5.73,2.52,-27.3,30.0
2012-09-05 00:27:00,0.0,1.9468,0.0009,390.17,0.34,243.1,33.2,138.03,32.00,24.65,36.51,1.06,-25.63,13.81,-46,39,-931,23.3,27.1,3.3,23.7,1.9,-28.7,5.73,2.52,-27.3,30.0
2012-09-05 00:28:00,0.0,1.9466,0.0011,390.30,0.32,237.7,37.2,138.03,32.00,24.66,36.50,0.93,-25.68,11.42,-46,39,-931,23.3,27.2,3.3,23.7,1.9,-28.7,5.73,2.53,-27.3,29.9
2012-09-05 00:29:00,0.0,1.9467,0.0011,390.27,0.32,241.2,33.9,138.03,32.00,24.66,36.51,1.06,-25.73,9.09,-46,39,-930,23.3,27.2,3.3,23.7,1.9,-28.8,5.73,2.52,-27.3,29.8
2012-09-05 00:30:00,0.0,1.9469,0.0010,390.17,0.34,235.2,32.4,138.03,32.00,24.66,36.51,1.10,-25.74,6.86,-46,39,-931,23.3,27.2,3.3,23.7,1.9,-28.9,5.73,2.51,-27.4,29.8
2012-09-05 00:31:00,0.0,1.9479,0.0010,390.37,0.33,236.4,31.2,138.03,32.00,24.65,36.50,0.97,-25.75,4.72,-46,39,-931,23.3,27.3,3.4,23.7,1.9,-28.9,5.73,2.51,-27.4,29.7
2012-09-05 00:32:00,0.0,1.9478,0.0012,390.31,0.26,246.5,32.1,138.03,32.00,24.66,36.51,1.03,-25.76,2.71,-46,39,-931,23.2,27.4,3.4,23.6,1.9,-28.9,5.73,2.52,-27.4,29.7
2012-09-05 00:33:00,0.0,1.9478,0.0011,390.34,0.32,242.6,32.2,138.03,32.00,24.65,36.51,1.09,-25.76,0.80,-46,39,-931,23.2,27.5,3.4,23.6,1.9,-28.9,5.73,2.53,-27.4,29.7
2012-09-05 00:34:00,0.0,1.9473,0.0010,390.32,0.34,235.9,30.1,138.03,32.00,24.66,36.50,0.97,-25.77,-0.79,-46,39,-931,23.2,27.5,3.4,23.6,1.9,-29.0,5.73,2.54,-27.4,29.7
2012-09-05 00:35:00,0.0,1.9467,0.0010,390.44,0.35,229.4,38.6,138.03,32.00,24.66,36.50,1.04,-25.77,-2.43,-46,39,-931,23.2,27.4,3.4,23.6,1.9,-28.9,5.73,2.52,-27.4,29.7
2012-09-05 00:36:00,0.0,1.9471,0.0008,390.40,0.32,238.9,39.0,138.03,32.00,24.66,36.50,1.09,-25.77,-3.87,-46,39,-931,23.2,27.5,3.4,23.6,1.9,-28.9,5.73,2.51,-27.4,29.6
2012-09-05 00:37:00,0.0,1.9475,0.0012,390.40,0.29,234.2,27.7,138.03,32.00,24.65,36.50,0.96,-25.77,-5.16,-46,39,-930,23.2,27.5,3.4,23.5,1.9,-28.9,5.73,2.52,-27.5,29.6
2012-09-05 00:38:00,0.0,1.9476,0.0012,390.51,0.33,233.5,34.6,138.03,32.00,24.65,36.50,1.03,-25.78,-6.32,-46,39,-930,23.1,27.6,3.4,23.5,1.9,-29.0,5.73,2.53,-27.4,29.5
2012-09-05 00:39:00,0.0,1.9479,0.0011,390.46,0.34,234.7,31.8,138.03,32.00,24.65,36.50,1.08,-25.79,-7.60,-46,39,-930,23.1,27.7,3.4,23.5,1.9,-29.0,5.73,2.54,-27.5,29.6
2012-09-05 00:40:00,0.0,1.9480,0.0012,390.41,0.38,225.7,34.5,138.03,32.00,24.65,36.51,0.96,-25.79,-8.85,-46,39,-931,23.1,27.7,3.4,23.5,1.9,-29.0,5.73,2.54,-27.5,29.5
2012-09-05 00:41:00,0.0,1.9480,0.0009,390.32,0.34,232.9,29.1,138.03,31.99,24.65,36.51,1.00,-25.80,-10.05,-46,39,-930,23.1,27.7,3.4,23.5,1.9,-29.0,5.73,2.52,-27.5,29.4
2012-09-05 00:42:00,0.0,1.9481,0.0009,390.38,0.34,226.2,32.5,138.03,31.99,24.65,36.51,1.07,-25.81,-11.20,-46,39,-931,23.1,27.7,3.4,23.5,1.9,-29.0,5.73,2.52,-27.5,29.4
2012-09-05 00:43:00,0.0,1.9488,0.0010,390.39,0.28,229.5,30.6,138.03,31.99,24.65,36.50,1.02,-25.82,-12.30,-46,39,-931,23.1,27.8,3.5,23.5,1.9,-29.1,5.73,2.53,-27.5,29.4
2012-09-05 00:44:00,0.0,1.9488,0.0012,390.42,0.37,235.2,32.3,138.03,31.99,24.66,36.50,0.96,-25.83,-13.33,-46,40,-931,23.1,27.9,3.5,23.4,1.9,-29.0,5.73,2.54,-27.5,29.4
2012-09-05 00:45:00,0.0,1.9494,0.0009,390.39,0.39,226.7,33.9,138.03,31.99,24.65,36.51,1.03,-25.84,-14.32,-46,40,-931,23.1,28.0,3.6,23.4,1.9,-29.0,5.73,2.55,-27.5,29.3
2012-09-05 00:46:00,0.0,1.9500,0.0012,390.44,0.30,230.6,35.6,138.03,31.99,24.65,36.50,1.07,-25.84,-15.25,-46,40,-931,23.0,28.2,3.6,23.4,1.9,-29.0,5.73,2.54,-27.5,29.3
2012-09-05 00:47:00,0.0,1.9491,0.0010,390.41,0.33,229.3,33.8,138.03,31.98,24.65,36.50,0.97,-25.86,-16.13,-46,40,-931,23.0,28.3,3.6,23.4,1.9,-29.1,5.73,2.53,-27.5,29.3
2012-09-05 00:48:00,0.0,1.9491,0.0011,390.50,0.32,225.2,37.6,138.03,31.98,24.66,36.50,0.98,-25.87,-16.93,-46,40,-930,23.0,28.2,3.6,23.4,1.9,-29.0,5.73,2.53,-27.5,29.3
2012-09-05 00:49:00,0.0,1.9496,0.0010,390.50,0.37,218.8,36.7,138.03,31.98,24.65,36.50,1.04,-25.89,-17.60,-46,40,-930,23.0,28.2,3.6,23.3,1.9,-29.1,5.73,2.54,-27.5,29.2
2012-09-05 00:50:00,0.0,1.9501,0.0010,390.47,0.39,232.4,33.9,138.03,31.98,24.66,36.50,1.06,-25.90,-18.32,-46,40,-930,23.0,28.3,3.7,23.3,1.9,-29.1,5.73,2.56,-27.6,29.3
2012-09-05 00:51:00,0.0,1.9501,0.0009,390.54,0.33,228.4,33.8,138.03,31.97,24.66,36.50,0.96,-25.92,-19.02,-46,40,-930,23.0,28.4,3.7,23.3,1.9,-29.1,5.73,2.55,-27.6,29.2
2012-09-05 00:52:00,0.0,1.9496,0.0012,390.51,0.32,227.2,33.5,138.03,31.97,24.66,36.50,0.98,-25.93,-19.66,-46,40,-930,23.0,28.4,3.7,23.4,1.9,-29.1,5.73,2.54,-27.6,29.2
2012-09-05 00:53:00,0.0,1.9500,0.0013,390.52,0.33,225.5,32.9,138.03,31.97,24.65,36.50,1.06,-25.94,-20.26,-46,40,-931,23.0,28.4,3.7,23.3,1.9,-29.1,5.73,2.53,-27.6,29.2
2012-09-05 00:54:00,0.0,1.9504,0.0010,390.60,0.29,214.7,33.4,138.03,31.97,24.65,36.50,1.03,-25.96,-20.84,-46,40,-931,23.0,28.4,3.7,23.3,1.9,-29.0,5.73,2.53,-27.6,29.2
2012-09-05 00:55:00,0.0,1.9507,0.0010,390.55,0.29,226.1,31.1,138.03,31.97,24.65,36.50,0.95,-25.97,-21.37,-46,40,-931,22.9,28.5,3.7,23.3,1.9,-29.1,5.73,2.55,-27.6,29.1
2012-09-05 00:56:00,0.0,1.9499,0.0012,390.72,0.35,224.8,32.6,138.03,31.97,24.65,36.49,0.98,-25.99,-21.88,-46,40,-931,22.9,28.4,3.6,23.3,1.9,-29.1,5.73,2.56,-27.6,29.0
2012-09-05 00:57:00,0.0,1.9504,0.0010,390.71,0.33,222.7,35.0,138.03,31.97,24.65,36.50,1.04,-26.00,-22.35,-46,40,-931,22.9,28.4,3.6,23.3,1.9,-29.1,5.73,2.55,-27.6,29.1
2012-09-05 00:58:00,0.0,1.9499,0.0010,390.66,0.38,222.9,32.4,138.03,31.96,24.66,36.50,1.04,-26.02,-22.80,-46,40,-931,22.9,28.4,3.6,23.3,1.9,-29.1,5.73,2.53,-27.6,29.1
2012-09-05 00:59:00,0.0,1.9508,0.0013,390.61,0.37,226.7,30.3,138.03,31.96,24.66,36.50,0.97,-26.03,-23.23,-46,40,-931,22.9,28.5,3.7,23.3,1.9,-29.2,5.73,2.53,-27.6,29.1
2012-09-05 01:00:00,0.0,1.9509,0.0010,390.65,0.32,211.6,35.8,138.03,31.96,24.66,36.50,0.97,-26.04,-23.63,-46,40,-931,22.9,28.5,3.7,23.3,1.9,-29.2,5.73,2.55,-27.6,29.1
2012-09-05 01:01:00,0.0,1.9513,0.0010,390.64,0.28,218.8,32.7,138.03,31.96,24.65,36.50,1.02,-26.06,-24.01,-46,40,-931,22.9,28.7,3.8,23.3,1.9,-29.1,5.73,2.56,-27.6,29.1
2012-09-05 01:02:00,0.0,1.9517,0.0010,390.53,0.32,219.5,33.9,138.03,31.96,24.65,36.50,1.04,-26.07,-24.37,-46,40,-931,22.9,28.8,3.9,23.3,1.9,-29.2,5.73,2.55,-27.7,29.0
2012-09-05 01:03:00,0.0,1.9512,0.0013,390.73,0.29,218.4,32.0,138.03,31.96,24.66,36.50,1.00,-26.09,-24.71,-46,40,-931,22.9,28.9,3.9,23.3,1.9,-29.3,5.73,2.54,-27.7,28.9
2012-09-05 01:04:00,0.0,1.9510,0.0011,390.62,0.35,221.3,26.6,138.03,31.96,24.65,36.50,0.96,-26.10,-25.03,-46,40,-931,22.9,28.8,3.8,23.2,1.9,-29.2,5.73,2.53,-27.7,29.0
2012-09-05 01:05:00,0.0,1.9509,0.0010,390.67,0.28,221.2,35.8,138.03,31.95,24.65,36.50,0.99,-26.12,-25.33,-46,40,-931,22.9,28.8,3.8,23.2,1.9,-29.3,5.73,2.54,-27.7,29.0
2012-09-05 01:06:00,0.0,1.9508,0.0009,390.76,0.28,209.7,37.6,138.03,31.95,24.66,36.50,1.04,-26.13,-25.61,-46,40,-931,22.9,28.8,3.8,23.2,1.9,-29.1,5.73,2.56,-27.7,29.0
2012-09-05 01:07:00,0.0,1.9504,0.0009,390.66,0.34,212.5,31.1,138.03,31.95,24.66,36.50,1.04,-26.15,-25.88,-46,40,-931,22.9,28.8,3.8,23.2,1.9,-29.3,5.73,2.56,-27.7,29.0
2012-09-05 01:08:00,0.0,1.9513,0.0010,390.66,0.29,222.5,33.8,138.03,31.95,24.65,36.51,0.94,-26.16,-26.13,-45,40,-931,22.8,28.9,3.8,23.2,1.9,-29.2,5.73,2.54,-27.7,29.0
2012-09-05 01:09:00,0.0,1.9513,0.0014,390.71,0.34,218.2,30.7,138.03,31.95,24.65,36.51,0.99,-26.17,-25.99,-46,40,-930,22.9,29.0,3.9,23.2,1.9,-29.3,5.73,2.53,-27.7,29.0
2012-09-05 01:10:00,0.0,1.9512,0.0011,390.71,0.31,224.2,33.1,138.03,31.95,24.65,36.51,0.97,-26.19,-25.98,-46,40,-930,22.8,29.2,3.9,23.2,1.9,-29.2,5.73,2.54,-27.7,28.9
2012-09-05 01:11:00,0.0,1.9507,0.0011,390.83,0.28,213.7,35.0,138.03,31.95,24.66,36.50,1.03,-26.20,-26.16,-46,40,-930,22.9,29.1,3.9,23.2,1.9,-29.2,5.73,2.55,-27.7,28.9
2012-09-05 01:12:00,0.0,1.9506,0.0009,390.79,0.33,213.6,32.9,138.03,31.95,24.66,36.50,0.94,-26.21,-26.05,-46,40,-930,22.8,29.1,3.9,23.2,1.9,-29.1,5.73,2.56,-27.8,28.9
2012-09-05 01:13:00,0.0,1.9511,0.0010,390.97,0.29,210.8,30.2,138.03,31.95,24.66,36.50,1.02,-26.23,-26.00,-46,40,-930,22.9,29.3,4.0,23.2,1.9,-29.2,5.73,2.56,-27.8,28.9
2012-09-05 01:14:00,0.0,1.9516,0.0011,390.94,0.37,217.8,30.0,138.03,31.94,24.65,36.50,0.97,-26.24,-26.19,-46,40,-930,22.9,29.3,4.0,23.1,1.9,-29.2,5.73,2.53,-27.8,28.9
2012-09-05 01:15:00,0.0,1.9511,0.0011,390.75,0.35,209.4,36.9,138.03,31.94,24.66,36.51,1.01,-26.25,-26.12,-45,40,-930,22.8,29.5,4.1,23.2,1.9,-29.3,5.73,2.53,-27.8,28.9
2012-09-05 01:16:00,0.0,1.9521,0.0009,390.80,0.33,206.4,34.6,138.03,31.94,24.65,36.50,0.96,-26.26,-26.02,-46,40,-930,22.9,29.7,4.2,23.2,1.9,-29.4,5.73,2.54,-27.8,28.9
2012-09-05 01:17:00,0.0,1.9513,0.0010,390.75,0.35,214.1,32.6,138.03,31.94,24.65,36.50,1.00,-26.27,-26.19,-45,40,-930,22.8,29.7,4.2,23.1,1.9,-29.4,5.73,2.55,-27.8,28.9
2012-09-05 01:18:00,0.0,1.9517,0.0009,390.56,0.33,203.5,29.7,138.03,31.94,24.65,36.51,0.93,-26.28,-26.19,-46,40,-930,22.9,29.8,4.3,23.2,1.9,-29.4,5.73,2.56,-27.8,28.9
2012-09-05 01:19:00,0.0,1.9508,0.0012,390.76,0.40,206.1,39.9,138.03,31.94,24.65,36.51,1.05,-26.29,-26.04,-45,40,-931,22.8,29.7,4.2,23.1,1.9,-29.2,5.73,2.54,-27.8,28.9
2012-09-05 01:20:00,0.0,1.9512,0.0012,390.73,0.35,210.2,35.4,138.03,31.94,24.65,36.51,1.02,-26.30,-26.20,-45,40,-930,22.9,29.5,4.1,23.1,1.9,-29.2,5.73,2.53,-27.8,28.9
2012-09-05 01:21:00,0.0,1.9512,0.0011,390.65,0.33,210.8,33.6,138.03,31.94,24.65,36.50,0.94,-26.31,-26.25,-45,40,-930,22.8,29.7,4.2,23.1,1.9,-29.2,5.73,2.53,-27.8,28.9
2012-09-05 01:22:00,0.0,1.9508,0.0010,390.69,0.35,204.0,29.1,138.03,31.94,24.65,36.50,0.97,-26.32,-26.06,-46,40,-930,22.9,29.6,4.2,23.2,1.9,-29.3,5.73,2.55,-27.8,29.0
2012-09-05 01:23:00,0.0,1.9512,0.0010,390.77,0.32,207.5,34.9,138.03,31.93,24.65,36.50,1.02,-26.32,-26.20,-46,40,-930,22.8,29.6,4.1,23.1,1.9,-29.4,5.73,2.56,-27.8,28.9
2012-09-05 01:24:00,0.0,1.9510,0.0014,390.78,0.35,209.2,32.9,138.03,31.93,24.66,36.50,0.86,-25.93,-26.42,-45,40,-931,22.9,29.6,4.2,23.2,1.9,-29.3,5.73,2.55,-27.9,29.0
2012-09-05 01:25:00,0.0,1.9519,0.0012,390.75,0.34,211.2,27.1,138.03,31.93,24.66,36.50,0.89,-24.32,-26.60,-45,40,-930,22.8,29.7,4.2,23.2,1.9,-29.4,5.73,2.55,-27.9,29.0
2012-09-05 01:26:00,0.0,1.9516,0.0012,390.76,0.39,227.6,37.1,138.03,31.93,24.66,36.50,0.92,-22.39,-26.73,-45,40,-930,22.9,29.8,4.3,23.2,1.9,-29.5,5.73,2.54,-27.6,29.0
2012-09-05 01:27:00,0.0,1.9513,0.0013,390.63,0.31,251.7,40.9,138.03,31.94,24.65,36.51,0.95,-20.48,-26.81,-46,40,-930,22.8,29.7,4.2,23.2,2.0,-29.0,5.73,2.53,-27.2,29.0
2012-09-05 01:28:00,0.0,1.9509,0.0011,390.67,0.31,255.6,38.8,138.03,31.94,24.65,36.51,0.95,-18.64,-26.86,-45,40,-930,22.9,29.5,4.1,23.2,2.1,-28.4,5.73,2.53,-27.0,29.0
2012-09-05 01:29:00,0.0,1.9505,0.0009,390.65,0.32,270.7,39.9,138.03,31.94,24.66,36.50,0.90,-16.88,-26.89,-45,40,-929,22.9,29.6,4.2,23.2,2.1,-28.0,5.73,2.53,-26.8,29.0
2012-09-05 01:30:00,0.0,1.9509,0.0009,390.71,0.33,280.5,34.9,138.03,31.94,24.65,36.50,0.86,-15.21,-26.90,-45,40,-930,22.9,29.6,4.2,23.2,2.2,-27.9,5.73,2.54,-26.7,29.0
2012-09-05 01:31:00,0.0,1.9511,0.0011,390.61,0.34,282.3,30.7,138.03,31.94,24.65,36.51,0.85,-13.64,-26.91,-45,40,-930,22.8,29.7,4.2,23.2,2.2,-27.7,5.73,2.55,-26.7,29.0
2012-09-05 01:32:00,0.0,1.9515,0.0012,390.63,0.31,279.3,32.2,138.03,31.94,24.65,36.51,0.88,-12.15,-26.92,-45,40,-930,22.9,29.7,4.2,23.2,2.2,-27.8,5.73,2.54,-26.7,29.0
2012-09-05 01:33:00,0.0,1.9519,0.0010,390.58,0.35,284.2,32.3,138.03,31.93,24.65,36.51,0.90,-10.74,-26.92,-45,40,-930,22.9,30.0,4.4,23.2,2.2,-27.8,5.73,2.54,-26.8,29.1
2012-09-05 01:34:00,0.0,1.9514,0.0012,390.71,0.30,283.2,36.0,138.03,31.93,24.66,36.50,0.92,-9.40,-26.92,-45,40,-930,22.9,30.0,4.4,23.2,2.2,-28.0,5.73,2.54,-26.8,29.1
2012-09-05 01:35:00,0.0,1.9508,0.0012,390.60,0.33,271.7,35.8,138.03,31.93,24.66,36.51,0.94,-8.13,-26.92,-45,40,-930,22.9,29.8,4.3,23.2,2.1,-28.1,5.73,2.53,-26.8,29.1
2012-09-05 01:36:00,0.0,1.9508,0.0010,390.63,0.32,270.1,30.0,138.03,31.93,24.65,36.51,0.94,-6.93,-26.91,-45,40,-930,22.9,30.1,4.4,23.2,2.1,-28.1,5.73,2.53,-26.8,29.2
2012-09-05 01:37:00,0.0,1.9504,0.0010,390.65,0.36,275.6,37.6,138.03,31.94,24.66,36.50,0.94,-5.78,-26.91,-45,40,-930,22.9,29.9,4.4,23.2,2.1,-28.2,5.73,2.53,-26.9,29.2
2012-09-05 01:38:00,0.0,1.9501,0.0009,390.54,0.31,273.6,41.1,138.03,31.94,24.66,36.51,0.92,-4.69,-26.90,-45,40,-930,22.9,29.9,4.4,23.2,2.1,-28.3,5.73,2.52,-26.9,29.2
2012-09-05 01:39:00,0.0,1.9498,0.0011,390.37,0.35,267.7,31.4,138.03,31.94,24.66,36.51,0.92,-3.64,-26.90,-45,40,-930,23.0,30.0,4.4,23.2,2.1,-28.3,5.73,2.53,-27.0,29.2
2012-09-05 01:40:00,0.0,1.9503,0.0009,390.29,0.35,265.5,31.2,138.03,31.94,24.65,36.51,0.90,-2.65,-26.88,-45,40,-930,23.0,30.1,4.5,23.2,2.1,-28.5,5.73,2.53,-27.0,29.2
2012-09-05 01:41:00,0.0,1.9504,0.0009,390.25,0.35,264.7,33.6,138.03,31.94,24.65,36.51,0.91,-1.72,-26.88,-45,40,-930,22.9,30.4,4.6,23.2,2.0,-28.6,5.73,2.54,-27.1,29.1
2012-09-05 01:42:00,0.0,1.9505,0.0012,390.21,0.35,252.8,34.3,138.03,31.94,24.66,36.50,0.87,-0.84,-26.87,-45,40,-930,23.0,30.8,4.8,23.2,2.0,-28.6,5.73,2.54,-27.1,29.2
2012-09-05 01:43:00,0.0,1.9463,0.0022,389.92,0.38,258.0,36.3,138.03,31.94,24.65,36.50,0.91,-0.00,-26.85,-45,40,-930,22.9,30.6,4.7,23.2,2.0,-28.7,5.73,2.53,-27.2,29.2
2012-09-05 01:44:00,0.0,1.9356,0.0036,388.30,0.68,251.1,37.6,138.03,31.94,24.66,36.51,0.92,0.78,-26.84,-45,40,-930,23.0,30.1,4.5,23.2,2.0,-28.8,5.73,2.52,-27.2,29.2
2012-09-05 01:45:00,0.0,1.9329,0.0010,388.00,0.30,239.9,36.8,138.03,31.94,24.66,36.50,0.92,1.52,-26.83,-45,40,-930,23.0,29.5,4.2,23.2,2.0,-28.8,5.73,2.52,-27.3,29.3
2012-09-05 01:46:00,0.0,1.9304,0.0011,387.61,0.30,246.4,31.5,138.03,31.93,24.65,36.50,0.92,2.21,-26.81,-45,40,-930,23.0,29.4,4.2,23.2,2.0,-28.8,5.73,2.52,-27.3,29.3
2012-09-05 01:47:00,0.0,1.9302,0.0011,387.65,0.36,246.7,32.9,138.03,31.93,24.65,36.50,0.92,2.72,-26.80,-45,40,-931,23.0,29.4,4.2,23.2,1.9,-29.0,5.73,2.52,-27.3,29.3
2012-09-05 01:48:00,0.0,1.9299,0.0010,387.48,0.37,243.2,38.9,138.03,31.93,24.65,36.51,0.94,2.90,-26.79,-45,40,-930,23.0,29.1,4.1,23.3,1.9,-29.0,5.73,2.52,-27.3,29.4
2012-09-05 01:49:00,0.0,1.9302,0.0012,387.52,0.30,252.0,36.0,138.03,31.94,24.66,36.51,0.93,3.12,-26.77,-45,40,-930,23.0,29.3,4.2,23.3,2.0,-28.9,5.73,2.52,-27.3,29.4
2012-09-05 01:50:00,0.0,1.9283,0.0012,387.22,0.30,240.5,29.5,138.03,31.94,24.65,36.51,0.93,3.48,-26.75,-45,40,-930,23.0,29.0,4.0,23.3,1.9,-29.0,5.73,2.53,-27.4,29.4
2012-09-05 01:51:00,0.0,1.9273,0.0009,387.19,0.31,235.8,32.9,138.03,31.94,24.65,36.50,0.93,3.87,-26.74,-45,40,-930,23.0,28.6,3.8,23.3,1.9,-29.1,5.73,2.53,-27.4,29.4
2012-09-05 01:52:00,0.0,1.9266,0.0009,386.95,0.34,235.5,35.8,138.03,31.94,24.65,36.51,0.94,4.34,-26.72,-45,40,-930,23.1,28.6,3.9,23.3,1.9,-29.1,5.73,2.53,-27.4,29.5
2012-09-05 01:53:00,0.0,1.9265,0.0011,386.80,0.36,237.2,37.1,138.03,31.94,24.65,36.51,0.94,4.81,-26.71,-45,40,-931,23.1,28.8,4.0,23.3,1.9,-29.1,5.73,2.53,-27.5,29.5
2012-09-05 01:54:00,0.0,1.9256,0.0011,386.72,0.33,236.2,36.0,138.03,31.94,24.65,36.51,0.94,5.20,-26.69,-45,40,-930,23.1,29.1,4.1,23.3,1.9,-29.1,5.73,2.52,-27.5,29.4
2012-09-05 01:55:00,0.0,1.9262,0.0011,386.81,0.29,229.2,34.0,138.03,31.94,24.65,36.51,0.94,5.63,-26.68,-45,40,-930,23.1,29.2,4.2,23.3,1.9,-29.3,5.73,2.51,-27.5,29.3
2012-09-05 01:56:00,0.0,1.9256,0.0011,386.62,0.36,232.6,27.2,138.03,31.94,24.66,36.51,0.94,6.06,-26.67,-45,40,-930,23.1,29.3,4.2,23.3,1.9,-29.3,5.73,2.52,-27.5,29.4
2012-09-05 01:57:00,0.0,1.9242,0.0010,386.64,0.35,224.0,36.8,138.03,31.94,24.66,36.51,0.94,6.67,-26.65,-45,40,-930,23.0,28.9,4.0,23.3,1.9,-29.3,5.73,2.52,-27.5,29.5
2012-09-05 01:58:00,0.0,1.9249,0.0011,386.75,0.35,225.4,32.5,138.03,31.94,24.65,36.50,0.94,7.13,-26.64,-45,40,-930,23.1,28.7,3.9,23.3,1.9,-29.2,5.73,2.52,-27.5,29.5
2012-09-05 01:59:00,0.0,1.9243,0.0013,386.67,0.31,232.7,36.6,138.03,31.94,24.65,36.50,0.93,7.56,-26.63,-45,40,-930,23.1,28.8,4.0,23.3,1.9,-29.2,5.73,2.53,-27.5,29.5
2012-09-05 02:00:00,0.0,1.9235,0.0009,386.71,0.37,230.1,33.2,138.03,31.94,24.66,36.50,0.92,7.96,-26.61,-45,40,-930,23.1,28.9,4.0,23.3,1.9,-29.2,5.73,2.52,-27.5,29.6
2012-09-05 02:01:00,0.0,1.9239,0.0010,386.62,0.32,228.0,32.8,138.03,31.94,24.65,36.50,0.93,8.34,-26.60,-45,40,-930,23.1,28.8,4.0,23.3,1.9,-29.2,5.73,2.52,-27.5,29.6
2012-09-05 02:02:00,0.0,1.9231,0.0010,386.56,0.37,235.5,36.9,138.03,31.94,24.65,36.51,0.93,8.72,-26.59,-45,40,-930,23.2,28.7,4.0,23.4,1.9,-29.2,5.73,2.52,-27.5,29.5
2012-09-05 02:03:00,0.0,1.9236,0.0010,386.49,0.33,226.0,35.6,138.03,31.94,24.66,36.51,0.92,9.08,-26.58,-45,40,-931,23.2,28.6,3.9,23.4,1.9,-29.2,5.73,2.52,-27.6,29.5
2012-09-05 02:04:00,0.0,1.9245,0.0010,386.61,0.34,233.5,39.5,138.03,31.94,24.65,36.51,0.90,9.42,-26.57,-45,40,-930,23.1,28.9,4.1,23.4,1.9,-29.3,5.73,2.51,-27.6,29.4
2012-09-05 02:05:00,0.0,1.9240,0.0010,386.58,0.32,234.0,30.4,138.03,31.94,24.65,36.51,0.92,9.76,-26.56,-45,40,-930,23.1,29.2,4.2,23.3,1.9,-29.2,5.73,2.51,-27.6,29.4
2012-09-05 02:06:00,0.0,1.9236,0.0011,386.46,0.37,217.0,35.7,138.03,31.94,24.66,36.51,0.95,10.09,-26.55,-45,40,-930,23.1,29.5,4.4,23.3,1.9,-29.2,5.73,2.52,-27.6,29.4
2012-09-05 02:07:00,0.0,1.9232,0.0012,386.56,0.34,227.9,32.6,138.03,31.93,24.65,36.50,0.94,10.41,-26.53,-45,40,-930,23.1,29.3,4.2,23.3,1.9,-29.2,5.73,2.53,-27.6,29.5
2012-09-05 02:08:00,0.0,1.9235,0.0010,386.49,0.32,226.8,32.7,138.03,31.93,24.66,36.52,0.90,10.71,-26.52,-45,40,-930,23.1,29.5,4.4,23.3,1.9,-29.2,5.73,2.53,-27.6,29.5
2012-09-05 02:09:00,0.0,1.9239,0.0009,386.50,0.32,217.5,32.0,138.03,31.93,24.66,36.51,0.92,11.01,-26.51,-45,40,-930,23.1,29.6,4.4,23.3,1.9,-29.3,5.73,2.53,-27.6,29.5
2012-09-05 02:10:00,0.0,1.9238,0.0010,386.50,0.32,222.5,35.9,138.03,31.93,24.65,36.51,0.94,11.29,-26.51,-45,40,-930,23.1,30.0,4.6,23.3,1.9,-29.2,5.73,2.53,-27.6,29.5
2012-09-05 02:11:00,0.0,1.9237,0.0012,386.57,0.40,224.6,30.9,138.03,31.93,24.65,36.50,0.93,11.56,-26.50,-45,40,-930,23.1,29.7,4.4,23.4,1.9,-29.2,5.73,2.52,-27.6,29.5
2012-09-05 02:12:00,0.0,1.9236,0.0012,386.58,0.30,225.6,32.8,138.03,31.93,24.65,36.50,0.93,11.83,-26.49,-45,40,-931,23.1,29.4,4.3,23.3,1.9,-29.2,5.73,2.52,-27.6,29.4
2012-09-05 02:13:00,0.0,1.9239,0.0013,386.65,0.37,226.5,37.7,138.03,31.93,24.65,36.50,0.93,12.09,-26.49,-45,40,-931,23.1,29.3,4.3,23.4,1.9,-29.2,5.73,2.52,-27.6,29.4
2012-09-05 02:14:00,0.0,1.9238,0.0009,386.78,0.34,225.4,32.8,138.03,31.93,24.65,36.50,0.93,12.33,-26.47,-45,40,-930,23.1,29.0,4.1,23.4,1.9,-29.2,5.73,2.51,-27.6,29.5
2012-09-05 02:15:00,0.0,1.9233,0.0010,386.72,0.31,231.0,34.3,138.03,31.93,24.66,36.50,0.94,12.57,-26.47,-45,40,-930,23.2,29.0,4.1,23.4,1.9,-29.2,5.73,2.52,-27.6,29.5
2012-09-05 02:16:00,0.0,1.9240,0.0010,386.60,0.35,224.5,30.5,138.03,31.94,24.65,36.51,0.93,12.79,-26.46,-45,40,-930,23.2,28.9,4.1,23.4,1.9,-29.2,5.73,2.51,-27.6,29.5
2012-09-05 02:17:00,0.0,1.9223,0.0011,386.53,0.37,223.7,35.5,138.03,31.94,24.66,36.51,0.95,13.01,-26.45,-45,40,-931,23.2,29.0,4.1,23.4,1.9,-29.2,5.73,2.51,-27.6,29.5
2012-09-05 02:18:00,0.0,1.9207,0.0011,386.58,0.34,220.7,38.3,138.03,31.94,24.66,36.50,0.93,13.22,-26.45,-45,40,-931,23.2,29.1,4.2,23.4,1.9,-29.2,5.73,2.52,-27.7,29.5
2012-09-05 02:19:00,0.0,1.9197,0.0011,386.59,0.38,224.4,30.4,138.03,31.94,24.65,36.50,0.93,13.42,-26.44,-45,40,-931,23.2,28.6,3.9,23.4,1.9,-29.3,5.73,2.51,-27.7,29.5
2012-09-05 02:20:00,0.0,1.9200,0.0013,386.57,0.34,222.3,28.4,138.03,31.94,24.66,36.51,0.94,13.61,-26.44,-45,40,-930,23.2,28.5,3.9,23.4,1.9,-29.4,5.73,2.52,-27.7,29.5